sat.trackr.live / text

‹ back to catalog

STARLINK-35287

NORAD 65754 · 2025-216W

PAYLOAD ACTIVE UNKNOWN

§ Identity

Operator
Country
US
Launch date
2025-09-25
Launch site
AFETR
Launch vehicle
Mass (kg)
RCS (m²)

Purposes: comms

External: N2YO · Heavens-Above · Gunter

§ Orbital elements

Epoch: 2026-05-24T19:30:11.703744Z

Period
94.10 min
Inclination
53.1599°
Eccentricity
0.0001082
Mean motion
15.30215819 rev/d
Perigee alt
474.4 km
Apogee alt
475.9 km
Semi-major
6,853.3 km
B*
2.8620e-4
RAAN
338.9291°
Arg perigee
83.9017°
Mean anomaly
276.2108°
Rev number
3,816

§ Raw data

STARLINK-352871 65754U 25216W   26144.81263546  .00008131  00000+0  28620-3 0  99982 65754  53.1599 338.9291 0001082  83.9017 276.2108 15.30215819 38164

JSON: /api/v1/satellites/65754 · /tle

For live sub-satellite position, see the globe view (requires WebGL).

§ Visibility from observer

Set your observer location to see the next 7 days of passes ≥ 10°. The values pass through the URL so the page stays shareable.

No JS? Fill the form by hand. The geolocation button needs JavaScript.